Starlink 3681

operational
NORAD ID: 51968 Int'l Des: 2022-025 Owner: SPXS Country: US Constellation: starlink
LEOCIRCULARSTARLINK_TYPE

About Starlink 3681

Description loading...

Live Position

Loading 3D Globe...

Upcoming Passes

Altitude History

Altitude vs Time

uPlot chart will show altitude changes over time

Two-Line Element Set

1 51968U 22025N 25304.15158925 -.00000414 00000-0 -89013-5 0 9997
2 51968 53.0555 248.4461 0001433 89.7924 270.3229 15.06397988201456
Epoch: Oct 31, 2025 • Age: 12 hours

Current Status

Altitude 547.5 km
Velocity 7.59 km/s
Sub-Earth Point 23.23°N, 135.58°E
Launch Date Mar 9, 2022
Age 3.6 years
Type internet

Technical Details

Classification Payload
Mass 297.00 kg
Dry Mass 275.00 kg
Total Mass 297.00 kg
Length 0.20 m
Diameter 2.80 m
Span 9.00 m
Shape Box + pan
Manufacturer SPXS
Bus Type Starlink
Phase Status In Orbit
Owner/State SPXS/US

Large Constellations

Loading constellations...